Location: Newark
(49.5647°N, 8.2922°E)
Time: 10:16:49
(UTC+00:00)

Altair - Visible Passes

Search period start: 17 February 2020 00:00
Search period end: 27 February 2020 00:00
Orbit: 1502 x 1682 km, 47.2° (Epoch: 16 February)

Date Brightness Start Highest point End Pass type
(mag) Time Alt. Az. Time Alt. Az. Time Alt. Az.
17 Feb 9.5 00:32:15 13° E 00:32:15 13° E 00:33:27 10° E visible
17 Feb 7.8 02:30:15 55° SE 02:30:15 55° SE 02:39:05 10° ENE visible
17 Feb 7.6 04:28:16 30° WSW 04:33:50 79° S 04:43:56 10° E visible
18 Feb 8.1 02:06:22 47° ESE 02:06:22 47° ESE 02:13:52 10° ENE visible
18 Feb 7.5 04:04:22 40° WSW 04:08:39 79° S 04:18:43 10° E visible
19 Feb 8.4 01:42:27 39° ESE 01:42:27 39° ESE 01:48:38 10° ENE visible
19 Feb 7.5 03:40:27 51° WSW 03:43:28 78° S 03:53:30 10° E visible
19 Feb 7.8 05:38:27 10° W 05:48:06 70° SSW 05:58:09 10° ESE visible
20 Feb 8.7 01:18:30 31° E 01:18:30 31° E 01:23:24 10° ENE visible
20 Feb 7.4 03:16:31 63° SW 03:18:17 77° S 03:28:18 10° E visible
20 Feb 7.7 05:14:31 15° W 05:22:56 71° SSW 05:32:59 10° ESE visible
21 Feb 9.0 00:54:34 24° E 00:54:34 24° E 00:58:10 10° ENE visible
21 Feb 7.4 02:52:34 74° SSW 02:53:06 76° S 03:03:04 10° E visible
21 Feb 7.7 04:50:34 21° W 04:57:45 73° SSW 05:07:47 10° ESE visible
22 Feb 9.2 00:30:37 19° E 00:30:37 19° E 00:32:57 10° ENE visible
22 Feb 7.5 02:28:38 72° SE 02:28:38 72° SE 02:37:51 10° E visible
22 Feb 7.6 04:26:38 28° W 04:32:34 74° SSW 04:42:36 10° ESE visible
23 Feb 9.5 00:06:40 14° E 00:06:40 14° E 00:07:42 10° ENE visible
23 Feb 7.8 02:04:40 60° ESE 02:04:40 60° ESE 02:12:38 10° E visible
23 Feb 7.5 04:02:41 36° W 04:07:22 76° S 04:17:25 10° ESE visible
24 Feb 8.1 01:40:45 47° E 01:40:45 47° E 01:47:25 10° E visible
24 Feb 7.5 03:38:44 46° W 03:42:12 77° S 03:52:13 10° ESE visible
24 Feb 8.0 05:37:09 10° WNW 05:46:26 49° SSW 05:55:58 10° SE visible
25 Feb 8.4 01:16:48 37° E 01:16:48 37° E 01:22:12 10° E visible
25 Feb 7.4 03:14:49 59° WSW 03:17:01 78° S 03:27:00 10° ESE visible
25 Feb 7.9 05:12:49 13° W 05:21:19 52° SSW 05:30:55 10° SE visible
26 Feb 8.8 00:52:54 29° E 00:52:54 29° E 00:56:59 10° E visible
26 Feb 7.3 02:50:54 73° SW 02:51:50 78° S 03:01:48 10° ESE visible
26 Feb 7.8 04:48:54 18° W 04:56:11 54° SSW 05:05:51 10° SE visible
